Simultaneous Nadir Overpasses (SNOs) Predictions

Prediction of SNOs near US between NOAA-19 and NPP Satellite Orbit:

Table of predicted SNOs near US for the next 10.0 days since TLE Epoch: 7/7/2012
Index Date (NOAA-19) Time (NOAA-19) NOAA-19 Lat,Lon Date (NPP) Time (NPP) NPP Lat,Lon Distance(km) Time Diff (sec)
1 07/15/2012 09:15:01 49.94,-104.93 07/15/2012 09:18:46 50.61,-108.17 241.60 225
2 07/15/2012 17:22:04 46.40, -66.70 07/15/2012 17:23:06 45.93, -69.01 185.88 62
3 07/15/2012 19:04:45 48.45, -93.07 07/15/2012 19:05:12 48.01, -95.23 167.02 27
4 07/15/2012 20:47:17 49.98,-119.27 07/15/2012 20:47:10 49.62,-121.30 150.66 7
5 07/16/2012 07:25:57 36.86, -81.61 07/16/2012 07:22:08 37.13, -83.08 133.66 229
6 07/16/2012 09:08:38 34.79,-107.77 07/16/2012 09:04:14 35.03,-109.10 123.51 264
7 07/16/2012 18:54:25
